Location: Unspecified
(52.4292°N, 19.3359°E)
Time: 23:30:51
(UTC+02:00)

SR - Pass Details

Date: 02 June 2024
Orbit: 580 x 858 km, 66.7° (Epoch: 12 June)

Event Time Altitude Azimuth Distance (km) Brightness Sun altitude
Rises 23:14:46 0° 321° (NW) 2,890 ? -12.9°
Reaches altitude 10° 23:17:08 10° 327° (NNW) 1,954 ? -13.0°
Maximum altitude 23:21:24 52° 44° (NE) 732 ? -13.3°
Enters shadow 23:24:59 13° 120° (ESE) 1,684 ? -13.4°
Drops below altitude 10° 23:25:31 10° 122° (ESE) 1,896 - -13.4°
Sets 23:27:47 0° 127° (SE) 2,795 - -13.6°
